Weather in Timofeyevo

Russia / Kaliningrad Oblast     54°58′52″N   22°17′54″E
temp.,
°C
wind,
m/s
gust,
m/s
humid.,
%
clouds,
%
prec.,
mm/h
press.,
hPa
HPBL,
m
18 may, tue
tue1823:00+11ne3380100 0.0 100444
02:00+10e1194100 0.0 100412
05:00+10ne2396100 0.0 100453
08:00+15ne2475100 0.0 1005382
11:00+18ne345856 0.1 10051524
14:00+20ne344769 0.1 10042101
17:00+18n246186 0.1 1004392
20:00+15ne117499 0.3 100516
19 may, wed
wed1923:00+13e0081100 0.0 100618
02:00+11wnw118898 0.0 100631
05:00+9nw2391100 0.0 100660
08:00+12wnw467752 0.0 1007428
11:00+15wnw6864100 0.0 10081221
14:00+16wnw676251 0.0 10081374
17:00+15wnw67645 0.0 1009998
20:00+11wnw5108599 0.0 1010439
20 may, thu
thu2023:00+7wnw389793 0.0 1012195
02:00+6wnw36959 0.0 1012134
05:00+6wnw259419 0.0 1012105
08:00+11w3477100 0.0 1013424
11:00+16nw5760100 0.0 10131144
14:00+15wnw7956100 0.0 10131154
17:00+14wnw7106574 0.0 10141022
20:00+9wnw611845 0.0 1015579
21 may, fri
fri2123:00+6w411933 0.0 1015369
02:00+4sw4109816 0.0 1015242
05:00+5wsw4119825 0.0 1015308
08:00+10w697411 0.1 10151064
11:00+13w7105421 0.2 10161734
14:00+14w69538 0.2 10161571
17:00+14w3555100 0.0 10151050
20:00+11s357966 0.0 1015110
22 may, sat
sat2223:00+9s41279100 0.0 1014279
02:00+10s51472100 0.0 1013385
05:00+11s61566100 0.0 1012523
08:00+13sse7146697 0.0 1011581
11:00+18s91459100 0.0 10101358
14:00+16ssw71466100 0.2 10091193
17:00+16ssw71278100 0.6 10091033
20:00+13sw51094100 4.8 1010475